Back to catalog

ARIANE 2 DEB

AliveGTO
NORAD 33534·DEBRIS·🇫🇷 France

Launched May 17, 1988 from Guiana Space Centre

Loading…

TLE

AgingSource: Space-Track

Epoch: Sep 14, 2026, 12:26 UTC

1 33534U 88040H   26257.51865461  .00000413  00000-0  24223-2 0  9999
2 33534   7.4070 270.9811 7146979 253.3503  22.6802  2.34266303184361

Track ARIANE 2 DEB in real time with AllMySat

Download on the App Store